Simultaneous Nadir Overpasses (SNOs) Predictions

Prediction of SNOs between GOES-17 and NOAA-19 Satellite Orbit:

Table of predicted SNOs for the next 14.0 days since TLE Epoch: 6/3/2023
Index Date Time (GOES-17) GOES-17 Lat,Lon NOAA-19 Lat,Lon Distance(km) Time Diff (sec)
1 06/03/2023 03:49:37 -0.00,-104.70 -0.88,-108.42 426.00 80
2 06/04/2023 03:37:36 0.00,-104.69 -0.20,-105.50 92.05 80
3 06/05/2023 03:22:54 0.00,-104.69 0.49,-102.57 241.85 80
4 06/07/2023 15:43:03 -0.01,-104.73 0.59,-107.36 300.09 80
5 06/08/2023 15:33:42 -0.00,-104.73 -0.10,-104.43 34.12 80
6 06/09/2023 15:21:39 -0.00,-104.72 -0.74,-101.50 368.19 80
7 06/12/2023 03:41:45 0.01,-104.67 -0.39,-106.26 182.23 80
8 06/13/2023 03:27:03 0.01,-104.67 0.31,-103.34 152.18 80
9 06/14/2023 03:15:02 0.01,-104.67 1.01,-100.42 486.58 80
10 06/15/2023 15:47:11 -0.01,-104.72 0.78,-108.12 388.79 80
11 06/16/2023 15:35:09 -0.01,-104.72 0.13,-105.19 54.34 80
